GFSNW_700_temp_078.txt.gz
Temp
-6 -6 -6 -6 -6 -7 -8 -8 -8 -9 -8 -8 -7 -6 -5 -2 -4 -3 -2 -1 0 3 4 4 3 4 4 4 4 5 6 7 7 8 8 8 8 8 8 8 9 8 7 7
-6 -6 -6 -7 -8 -8 -8 -8 -9 -8 -8 -8 -8 -7 -5 -5 -6 -4 -1 -1 -0 2 3 4 3 3 4 3 4 5 6 6 7 8 8 8 7 8 8 8 8 8 7 7
-6 -6 -6 -7 -8 -8 -8 -8 -8 -8 -8 -7 -8 -8 -7 -6 -6 -5 -3 -2 -1 -0 2 2 3 2 3 3 4 4 5 6 7 7 7 8 7 8 8 8 8 7 8 8
-7 -8 -8 -8 -9 -8 -8 -8 -8 -8 -8 -8 -8 -7 -6 -6 -6 -5 -4 -3 -2 -2 -1 -0 2 1 1 3 3 3 4 4 6 7 7 8 8 8 7 7 8 8 8 8
-8 -8 -8 -8 -8 -8 -8 -8 -8 -8 -8 -8 -8 -7 -7 -5 -4 -5 -4 -4 -2 -1 -3 2 2 1 0 1 2 2 4 4 5 6 7 7 7 8 8 8 8 8 8 8
-9 -9 -9 -9 -8 -8 -8 -8 -7 -7 -7 -7 -7 -6 -7 -6 -5 -4 -4 -3 -2 -2 -1 -2 -1 2 2 0 1 1 2 4 5 5 6 7 7 7 8 8 8 8 8 8
-10 -10 -10 -10 -9 -8 -8 -7 -8 -8 -7 -7 -7 -7 -7 -6 -5 -4 -3 -3 -2 -1 -1 -2 -1 -1 -0 0 -0 0 2 3 4 4 5 4 6 7 7 7 7 7 7 8
-10 -10 -10 -10 -10 -9 -8 -8 -8 -8 -7 -7 -7 -7 -6 -6 -5 -5 -4 -3 -2 -1 -1 -2 -3 -2 -2 -1 0 0 0 0 0 3 4 5 6 6 6 6 6 7 7 7
-9 -9 -10 -10 -10 -9 -9 -8 -8 -8 -8 -7 -6 -6 -6 -6 -6 -5 -5 -4 -3 -2 -1 -3 -3 -2 -0 -1 -1 0 0 -1 -1 2 3 3 5 6 6 6 6 6 7 7
-10 -10 -10 -10 -9 -9 -9 -8 -8 -8 -8 -7 -7 -7 -6 -5 -6 -5 -5 -4 -4 -3 -2 -3 -3 -2 1 1 1 -0 -1 -1 -0 1 2 4 5 5 5 5 6 7 6 6
-9 -9 -9 -9 -9 -10 -9 -8 -8 -8 -8 -8 -7 -6 -6 -6 -6 -5 -5 -4 -5 -4 -3 -3 -3 -3 -0 1 2 1 1 -1 0 0 2 2 4 5 6 5 6 6 5 6
-9 -9 -9 -9 -9 -9 -9 -8 -8 -8 -8 -7 -7 -6 -6 -6 -6 -5 -5 -4 -3 -4 -4 -3 -2 -1 -0 0 1 2 1 1 0 2 2 3 4 4 5 5 5 5 5 5
-9 -9 -9 -9 -9 -9 -9 -8 -8 -8 -8 -8 -7 -7 -6 -6 -5 -5 -5 -5 -5 -4 -3 -3 -2 -2 0 0 1 2 3 2 2 2 2 3 2 3 4 4 5 5 5 5
-8 -9 -9 -9 -9 -9 -8 -8 -8 -8 -8 -7 -7 -7 -7 -6 -6 -5 -5 -5 -5 -4 -4 -3 -3 -2 -1 -0 0 2 2 3 3 3 3 3 2 3 3 3 4 4 4 4
-9 -9 -8 -9 -9 -9 -8 -8 -8 -8 -8 -7 -7 -7 -7 -6 -6 -6 -6 -5 -4 -5 -4 -3 -3 -2 -1 0 1 1 2 2 3 2 2 3 3 4 3 3 3 4 4 3
-8 -8 -8 -9 -8 -8 -8 -8 -8 -8 -8 -8 -8 -7 -7 -8 -6 -6 -6 -6 -5 -5 -4 -4 -3 -2 -1 -1 0 1 1 2 2 2 2 2 3 3 3 3 3 2 3 3
-8 -8 -8 -7 -8 -8 -8 -8 -7 -7 -7 -7 -7 -7 -6 -7 -6 -6 -5 -6 -6 -6 -4 -3 -3 -2 -2 -2 -1 -0 0 1 2 2 2 2 2 2 2 2 2 2 2 2
-9 -8 -8 -8 -8 -8 -8 -8 -7 -8 -8 -8 -8 -7 -7 -6 -7 -7 -5 -6 -5 -6 -5 -4 -3 -3 -2 -2 -1 -0 1 1 1 1 2 2 1 1 2 2 2 2 2 2
-8 -8 -8 -8 -8 -8 -8 -8 -8 -8 -8 -8 -8 -7 -7 -7 -8 -8 -7 -6 -6 -5 -5 -4 -3 -3 -3 -2 -2 -1 -0 0 1 1 0 1 1 1 1 1 1 1 1 1
-8 -8 -8 -9 -8 -8 -8 -8 -8 -9 -8 -8 -8 -7 -7 -7 -7 -7 -7 -7 -6 -5 -4 -3 -3 -3 -3 -2 -1 -1 -1 -1 0 -0 -0 -0 0 1 1 1 0 0 1 1
-8 -9 -9 -9 -9 -8 -9 -9 -9 -9 -9 -8 -7 -7 -6 -7 -7 -7 -7 -6 -5 -5 -4 -4 -3 -3 -2 -2 -2 -1 -1 -1 -1 -0 -0 -0 -0 -0 -0 -0 -0 -0 -0 -1
-7 -7 -8 -9 -8 -8 -8 -8 -8 -8 -7 -7 -6 -6 -7 -8 -7 -7 -5 -5 -5 -4 -3 -4 -3 -3 -3 -2 -2 -2 -2 -1 -1 -1 -0 -0 -1 -1 -1 -1 -1 -1 -1 -2
-8 -8 -9 -8 -8 -8 -8 -7 -8 -7 -7 -7 -7 -7 -8 -7 -7 -6 -5 -4 -4 -3 -4 -3 -2 -2 -2 -2 -2 -2 -2 -1 -1 -1 -1 -1 -1 -1 -1 -1 -1 -2 -2 -3
-8 -8 -8 -8 -8 -8 -7 -7 -6 -6 -6 -7 -7 -7 -7 -6 -6 -5 -5 -4 -3 -3 -4 -4 -3 -2 -3 -3 -2 -2 -2 -2 -1 -2 -2 -2 -2 -2 -2 -2 -2 -3 -4 -4
-8 -7 -8 -8 -8 -7 -7 -7 -6 -6 -7 -7 -7 -6 -6 -6 -5 -5 -5 -4 -4 -6 -7 -6 -4 -4 -4 -4 -4 -3 -2 -2 -2 -3 -3 -3 -2 -2 -3 -3 -4 -5 -5 -6
-7 -7 -8 -8 -8 -7 -6 -6 -6 -6 -6 -7 -6 -6 -6 -6 -6 -6 -6 -6 -7 -8 -7 -6 -5 -5 -4 -4 -4 -3 -3 -3 -3 -4 -4 -4 -4 -5 -5 -5 -6 -7 -7 -8
-7 -8 -8 -7 -6 -6 -7 -6 -5 -5 -6 -6 -5 -6 -6 -7 -7 -8 -8 -9 -9 -7 -7 -7 -6 -6 -5 -5 -5 -5 -5 -5 -5 -5 -6 -6 -6 -6 -7 -7 -8 -9 -9 -10

GFSNW_700_temp_084.txt.gz
Temp
-8 -8 -8 -8 -8 -8 -10 -10 -10 -9 -9 -9 -9 -8 -9 -7 -7 -6 -5 -6 -4 -3 -4 -3 -4 -3 -4 1 1 1 4 4 4 5 6 6 6 7 7 7 5 6 6 6
-8 -8 -8 -8 -8 -9 -10 -10 -10 -10 -9 -9 -9 -9 -9 -9 -9 -7 -7 -6 -4 -5 -5 -5 -3 -2 -1 -3 -0 2 4 3 4 4 5 5 6 6 7 7 7 6 3 6
-8 -8 -8 -8 -8 -9 -10 -10 -9 -9 -9 -8 -9 -9 -9 -9 -8 -8 -7 -6 -6 -6 -6 -4 -5 -2 -1 -3 -1 1 3 4 4 4 5 5 6 6 6 7 6 6 6 7
-8 -8 -8 -8 -9 -9 -10 -9 -9 -9 -8 -9 -8 -8 -9 -9 -9 -9 -8 -6 -5 -5 -7 -5 -4 -2 -2 -2 -2 -1 0 3 4 4 4 5 4 5 5 6 7 7 7 7
-8 -8 -8 -9 -9 -9 -9 -9 -9 -9 -8 -8 -9 -9 -9 -9 -8 -8 -7 -7 -5 -6 -6 -5 -5 -4 -3 -3 -2 -1 -0 2 3 4 4 3 3 3 5 6 7 7 7 7
-8 -8 -8 -8 -9 -9 -9 -9 -9 -9 -9 -9 -9 -8 -8 -8 -8 -8 -7 -6 -7 -7 -5 -4 -5 -4 -4 -4 -3 -3 -1 -0 2 3 3 3 3 3 4 5 6 6 7 7
-7 -7 -7 -8 -8 -9 -9 -9 -9 -9 -9 -9 -8 -9 -8 -8 -7 -7 -5 -6 -6 -5 -5 -5 -5 -4 -4 -4 -3 -2 -2 -1 2 2 2 2 1 3 4 5 6 6 6 7
-8 -9 -9 -8 -9 -9 -9 -9 -9 -9 -9 -9 -9 -8 -8 -7 -7 -7 -6 -5 -5 -5 -5 -5 -5 -4 -3 -2 -1 -2 -2 -2 -1 0 1 3 2 4 5 5 5 6 6 7
-8 -9 -10 -10 -9 -9 -9 -9 -9 -9 -9 -9 -9 -8 -8 -7 -6 -7 -6 -4 -5 -5 -6 -6 -5 -4 -3 -2 -1 -1 -2 -2 -2 -2 -2 -1 3 4 5 5 5 6 6 6
-9 -9 -9 -10 -10 -9 -9 -9 -9 -9 -9 -8 -8 -8 -8 -7 -6 -6 -7 -6 -5 -5 -6 -6 -6 -4 -4 -3 -2 -2 -2 -2 -1 -1 -2 -0 3 3 4 4 5 6 6 6
-9 -10 -10 -10 -10 -10 -9 -9 -9 -9 -9 -9 -8 -8 -8 -7 -7 -7 -7 -7 -6 -5 -6 -6 -6 -4 -4 -3 -3 -1 -2 -2 -2 -2 -3 -2 2 3 3 3 4 5 5 5
-9 -9 -9 -10 -10 -10 -10 -10 -9 -9 -9 -8 -9 -7 -7 -6 -6 -6 -7 -7 -6 -6 -6 -6 -5 -5 -3 -3 -3 -1 -1 -2 0 0 1 2 2 2 2 3 4 4 5 5
-9 -9 -9 -9 -9 -10 -10 -10 -10 -10 -10 -9 -9 -8 -7 -7 -7 -7 -7 -6 -7 -6 -6 -5 -5 -5 -4 -3 -2 -1 -0 0 -0 0 1 1 2 2 1 2 3 4 4 4
-8 -8 -8 -9 -9 -10 -10 -10 -10 -10 -10 -11 -8 -7 -7 -7 -7 -7 -6 -6 -6 -6 -6 -6 -6 -5 -4 -3 -2 -1 -1 0 1 1 1 1 1 1 2 2 3 3 3 4
-8 -9 -9 -9 -9 -9 -10 -10 -10 -10 -10 -10 -8 -8 -7 -8 -7 -7 -7 -6 -6 -6 -6 -6 -6 -5 -4 -4 -2 -2 -1 -0 0 1 2 1 1 1 2 2 3 3 3 2
-9 -9 -9 -9 -9 -9 -10 -10 -10 -10 -10 -8 -8 -7 -7 -7 -7 -6 -6 -6 -6 -6 -6 -6 -6 -5 -5 -4 -3 -2 -2 -0 -0 1 1 1 1 1 2 2 2 2 2 2
-10 -9 -9 -9 -9 -9 -9 -9 -8 -9 -10 -9 -7 -8 -7 -7 -7 -7 -7 -7 -6 -6 -6 -6 -6 -6 -6 -6 -5 -2 -1 -1 -0 -0 0 1 1 1 1 2 2 2 2 2
-9 -9 -9 -9 -9 -10 -10 -9 -8 -9 -10 -9 -7 -7 -7 -7 -7 -7 -7 -7 -6 -6 -6 -6 -6 -6 -6 -6 -4 -2 -1 -1 -1 -0 0 1 1 1 1 2 1 2 2 2
-9 -9 -9 -9 -9 -9 -9 -9 -9 -9 -9 -8 -8 -6 -7 -7 -7 -7 -6 -6 -6 -6 -6 -6 -6 -6 -5 -4 -4 -3 -2 -1 -0 -1 -0 1 1 1 1 1 1 1 1 1
-9 -9 -9 -9 -9 -9 -9 -8 -9 -8 -8 -8 -7 -6 -6 -6 -7 -7 -7 -7 -7 -7 -7 -6 -6 -4 -3 -4 -3 -2 -3 -2 -1 -1 -1 0 0 0 1 0 0 0 0 0
-9 -9 -8 -8 -9 -8 -8 -8 -8 -8 -8 -7 -7 -6 -5 -6 -6 -6 -7 -7 -7 -7 -6 -6 -6 -5 -4 -3 -3 -3 -3 -2 -1 -1 -1 -0 0 0 0 -0 -1 -1 -1 -1
-8 -8 -8 -8 -8 -8 -8 -8 -8 -7 -7 -7 -7 -6 -6 -6 -6 -7 -7 -7 -7 -6 -6 -6 -5 -5 -3 -2 -3 -5 -3 -2 -1 -1 -0 -1 -1 -1 -1 -1 -1 -1 -1 -2
-8 -8 -8 -8 -7 -7 -7 -7 -6 -6 -6 -5 -5 -6 -6 -6 -7 -7 -7 -7 -6 -6 -6 -5 -5 -4 -3 -3 -4 -4 -4 -3 -3 -2 -2 -2 -2 -2 -2 -2 -2 -2 -2 -3
-7 -7 -7 -8 -8 -8 -7 -6 -6 -7 -8 -6 -6 -6 -6 -7 -7 -7 -7 -6 -6 -5 -4 -4 -4 -4 -4 -5 -4 -4 -4 -3 -3 -3 -2 -2 -2 -2 -2 -2 -3 -3 -4 -4
-7 -8 -8 -9 -9 -8 -8 -8 -8 -7 -7 -7 -6 -7 -7 -7 -8 -7 -7 -6 -6 -5 -5 -5 -4 -5 -5 -4 -3 -4 -4 -4 -4 -3 -3 -3 -3 -3 -4 -4 -4 -4 -5 -5
-7 -9 -9 -9 -8 -8 -8 -8 -7 -7 -8 -7 -7 -7 -7 -7 -7 -7 -7 -7 -6 -6 -5 -5 -6 -5 -4 -4 -5 -5 -4 -4 -4 -4 -4 -4 -4 -5 -5 -4 -5 -6 -7 -8
-8 -10 -9 -8 -8 -8 -9 -8 -7 -7 -8 -7 -7 -7 -7 -8 -7 -8 -8 -8 -8 -8 -7 -7 -7 -6 -6 -6 -6 -6 -6 -5 -5 -5 -5 -5 -5 -6 -7 -7 -8 -8 -8 -9

GFSNW_700_temp_090.txt.gz
Temp
-9 -10 -10 -10 -10 -11 -11 -11 -11 -10 -10 -10 -11 -11 -10 -9 -8 -7 -7 -7 -6 -6 -5 -5 -6 -5 -4 -2 -3 -3 -3 -3 -2 1 3 3 3 4 4 4 3 4 5 5
-10 -10 -10 -11 -11 -11 -11 -12 -11 -11 -11 -11 -11 -11 -10 -9 -8 -7 -8 -8 -7 -7 -6 -6 -6 -5 -3 -4 -3 -4 -3 -3 -3 0 2 3 3 3 3 3 4 4 3 5
-11 -11 -11 -11 -11 -11 -12 -12 -12 -11 -11 -11 -10 -10 -10 -10 -9 -8 -9 -8 -8 -8 -7 -7 -7 -6 -5 -4 -4 -4 -4 -4 -4 -3 -2 -1 -0 3 4 4 4 4 4 5
-11 -11 -11 -11 -11 -12 -12 -12 -11 -11 -10 -10 -10 -10 -10 -10 -10 -9 -9 -8 -8 -8 -8 -8 -7 -7 -6 -5 -4 -4 -5 -5 -4 -3 -3 -2 0 0 3 4 5 4 5 5
-10 -10 -10 -10 -11 -12 -12 -12 -12 -11 -10 -10 -10 -10 -10 -9 -10 -10 -9 -9 -8 -8 -8 -8 -7 -7 -7 -7 -5 -5 -5 -5 -4 -3 -1 -2 -0 2 2 4 4 4 4 5
-10 -10 -10 -10 -11 -12 -12 -11 -11 -11 -11 -10 -11 -10 -9 -9 -9 -9 -9 -9 -9 -8 -6 -8 -8 -8 -7 -7 -6 -6 -7 -5 -4 -3 -1 -2 -1 2 3 3 4 4 4 4
-10 -10 -10 -10 -10 -11 -11 -11 -11 -11 -11 -10 -10 -10 -10 -9 -9 -9 -9 -9 -8 -7 -8 -8 -8 -7 -7 -6 -6 -6 -6 -6 -5 -4 -2 -2 1 3 4 4 4 4 4 4
-10 -10 -10 -10 -10 -10 -11 -11 -10 -10 -10 -10 -10 -10 -10 -9 -9 -9 -9 -9 -8 -8 -8 -8 -7 -7 -6 -5 -4 -4 -5 -5 -5 -4 -3 -2 -1 2 3 3 4 4 4 4
-10 -10 -10 -10 -10 -10 -10 -10 -10 -10 -10 -10 -9 -10 -9 -9 -9 -9 -9 -9 -9 -9 -8 -9 -8 -7 -6 -5 -4 -3 -5 -4 -5 -4 -3 -3 -1 -0 1 2 2 4 4 4
-10 -10 -10 -10 -10 -10 -10 -10 -10 -10 -10 -10 -10 -10 -10 -9 -9 -9 -9 -8 -8 -8 -8 -9 -8 -8 -7 -6 -5 -4 -5 -5 -5 -5 -3 -2 0 -0 -1 0 2 3 3 3
-10 -10 -10 -10 -10 -10 -10 -10 -10 -10 -10 -10 -10 -10 -10 -9 -9 -9 -9 -9 -8 -8 -8 -8 -8 -8 -7 -6 -5 -4 -4 -4 -4 -3 -3 -2 -0 0 -1 -0 2 2 2 3
-10 -9 -10 -10 -10 -10 -10 -10 -10 -10 -10 -10 -10 -10 -9 -9 -9 -9 -9 -8 -7 -7 -8 -8 -7 -7 -6 -6 -6 -4 -5 -4 -3 -2 -3 -0 0 -0 -1 -1 -0 2 2 2
-9 -9 -9 -10 -10 -10 -10 -10 -10 -10 -10 -10 -10 -9 -9 -9 -9 -8 -9 -8 -8 -8 -7 -7 -7 -7 -6 -6 -6 -5 -4 -4 -4 -3 -0 0 1 0 -1 -0 -1 -0 0 0
-9 -9 -9 -9 -10 -10 -10 -10 -9 -10 -9 -10 -9 -9 -9 -8 -8 -9 -8 -7 -8 -8 -8 -8 -7 -6 -6 -6 -6 -5 -4 -4 -4 -3 -2 -1 0 -0 -0 -0 -0 -0 0 -1
-9 -9 -9 -9 -9 -10 -10 -10 -10 -10 -10 -10 -10 -10 -9 -8 -9 -9 -9 -8 -8 -8 -8 -8 -7 -7 -6 -6 -6 -5 -4 -3 -4 -4 -3 -3 -0 0 0 -1 -0 0 -0 -0
-9 -9 -9 -9 -9 -10 -10 -10 -10 -10 -10 -10 -10 -10 -9 -8 -8 -9 -8 -9 -8 -8 -8 -7 -7 -7 -7 -7 -6 -4 -4 -4 -4 -3 -3 -3 -2 -0 0 -0 -1 -1 -1 -1
-8 -9 -9 -9 -9 -9 -10 -10 -10 -10 -11 -10 -10 -10 -8 -8 -8 -9 -8 -8 -8 -8 -7 -7 -7 -6 -6 -6 -6 -4 -4 -4 -4 -4 -3 -3 -3 -1 0 -0 -1 -1 -1 -1
-9 -9 -9 -9 -9 -10 -10 -10 -10 -10 -10 -10 -10 -9 -8 -8 -9 -9 -9 -8 -8 -8 -8 -7 -7 -7 -7 -7 -6 -4 -3 -4 -3 -3 -3 -3 -3 -1 0 -0 -1 -2 -1 -2
-9 -9 -9 -9 -9 -9 -10 -10 -10 -10 -10 -10 -10 -10 -9 -9 -9 -9 -8 -8 -8 -8 -8 -7 -7 -7 -7 -6 -5 -4 -3 -3 -3 -3 -4 -4 -3 -2 -0 -0 -1 -1 -1 -1
-9 -9 -9 -10 -9 -10 -10 -10 -10 -11 -10 -10 -10 -9 -9 -9 -9 -9 -8 -8 -8 -7 -7 -7 -7 -6 -5 -5 -4 -4 -3 -3 -3 -4 -4 -3 -2 -2 -1 -1 -1 -1 -0 -1
-9 -10 -10 -10 -10 -10 -10 -9 -10 -10 -10 -10 -9 -9 -8 -9 -8 -9 -8 -7 -8 -7 -7 -7 -7 -6 -4 -4 -3 -3 -3 -3 -3 -3 -3 -2 -2 -2 -1 -1 -1 -1 -1 -1
-9 -8 -9 -10 -10 -9 -9 -9 -9 -9 -8 -8 -8 -8 -8 -8 -7 -7 -8 -8 -7 -6 -7 -7 -8 -5 -4 -3 -3 -3 -3 -3 -3 -4 -3 -2 -1 -1 -1 -1 -1 -2 -1 -1
-8 -9 -9 -9 -9 -9 -9 -9 -8 -8 -8 -8 -7 -7 -8 -7 -8 -8 -7 -7 -6 -7 -7 -8 -7 -5 -4 -4 -4 -4 -4 -4 -4 -4 -4 -2 -2 -2 -2 -2 -2 -2 -2 -2
-9 -8 -8 -9 -9 -9 -10 -7 -7 -8 -8 -7 -7 -7 -8 -8 -8 -7 -7 -7 -7 -8 -8 -7 -5 -4 -4 -4 -4 -5 -4 -4 -4 -4 -4 -3 -3 -2 -2 -2 -3 -3 -2 -3
-9 -9 -9 -9 -9 -9 -10 -9 -9 -9 -8 -8 -8 -8 -7 -7 -7 -7 -7 -7 -8 -8 -8 -6 -5 -6 -5 -4 -4 -4 -4 -4 -4 -5 -4 -4 -3 -3 -3 -3 -3 -3 -4 -4
-9 -10 -10 -10 -9 -9 -9 -9 -9 -8 -8 -9 -9 -8 -8 -8 -7 -7 -7 -8 -8 -7 -6 -5 -5 -6 -6 -5 -5 -4 -5 -5 -5 -5 -5 -5 -4 -4 -4 -4 -5 -5 -5 -5
-9 -10 -9 -9 -9 -9 -9 -8 -8 -8 -9 -9 -8 -8 -8 -8 -8 -8 -8 -8 -7 -7 -7 -7 -7 -7 -8 -8 -7 -6 -6 -6 -6 -5 -5 -5 -5 -5 -6 -6 -6 -7 -7 -8

GFSNW_700_temp_093.txt.gz
Temp
-10 -10 -11 -12 -12 -12 -12 -12 -12 -11 -11 -11 -11 -11 -9 -9 -9 -9 -8 -8 -8 -7 -7 -6 -6 -5 -5 -3 -3 -3 -3 -3 -3 -0 2 2 1 2 3 2 3 3 4 5
-12 -12 -12 -12 -12 -12 -12 -12 -12 -12 -11 -11 -11 -11 -10 -10 -10 -9 -9 -9 -9 -8 -7 -7 -6 -6 -5 -5 -4 -4 -4 -4 -3 -0 1 1 1 1 1 2 2 3 3 4
-13 -12 -12 -12 -12 -12 -12 -12 -12 -12 -12 -11 -11 -11 -11 -11 -10 -10 -10 -10 -9 -9 -9 -8 -7 -7 -6 -5 -5 -5 -5 -5 -4 -2 -2 -1 -1 0 -0 -1 -1 2 2 3
-13 -13 -13 -13 -13 -12 -13 -12 -12 -12 -11 -11 -10 -11 -11 -10 -10 -10 -10 -10 -9 -9 -9 -9 -8 -7 -7 -6 -5 -5 -5 -5 -5 -5 -3 -1 -1 -1 1 1 1 0 3 3
-12 -12 -13 -12 -12 -12 -13 -13 -12 -12 -12 -11 -11 -11 -10 -10 -10 -11 -10 -10 -9 -9 -9 -8 -8 -8 -8 -7 -7 -6 -6 -5 -5 -5 -4 -3 -1 1 -0 1 1 1 1 2
-13 -12 -12 -12 -12 -12 -13 -13 -12 -12 -12 -11 -11 -11 -10 -10 -10 -10 -10 -9 -9 -9 -9 -8 -8 -8 -8 -8 -7 -7 -7 -6 -5 -4 -3 -3 -3 0 -0 1 2 2 2 3
-12 -12 -12 -12 -11 -12 -12 -12 -12 -12 -12 -11 -11 -10 -10 -10 -9 -9 -9 -9 -9 -9 -9 -8 -8 -8 -7 -7 -7 -7 -6 -7 -7 -6 -4 -3 -0 0 -0 0 2 2 3 3
-11 -11 -11 -11 -11 -12 -13 -12 -12 -12 -12 -11 -11 -11 -10 -10 -10 -10 -10 -9 -9 -9 -9 -9 -8 -7 -7 -5 -5 -5 -5 -6 -7 -5 -4 -2 -0 0 0 -1 2 2 2 3
-11 -11 -11 -11 -11 -11 -12 -12 -12 -12 -11 -10 -10 -10 -10 -10 -10 -10 -9 -9 -9 -9 -9 -8 -8 -8 -7 -6 -5 -4 -5 -5 -7 -5 -5 -3 -0 -0 0 -0 -1 1 2 2
-12 -11 -11 -11 -11 -11 -12 -11 -12 -12 -12 -10 -10 -10 -10 -10 -10 -9 -9 -9 -9 -9 -9 -8 -9 -8 -7 -6 -5 -5 -5 -7 -7 -7 -5 -3 -1 -1 -0 -0 -1 -1 -0 1
-11 -11 -11 -11 -11 -11 -11 -11 -11 -12 -12 -11 -11 -10 -10 -10 -10 -10 -10 -9 -9 -9 -8 -8 -8 -8 -7 -7 -5 -5 -5 -6 -7 -6 -5 -5 -3 -2 -2 -2 -2 -2 -1 0
-11 -10 -10 -10 -10 -11 -11 -11 -11 -11 -11 -11 -10 -10 -10 -10 -10 -10 -10 -9 -9 -8 -8 -8 -8 -8 -7 -6 -6 -5 -6 -4 -4 -4 -5 -4 -4 -3 -2 -2 -3 -2 -1 -1
-10 -10 -10 -10 -10 -10 -10 -10 -10 -10 -10 -10 -10 -10 -9 -9 -9 -9 -10 -9 -9 -8 -8 -8 -8 -8 -7 -7 -6 -5 -4 -4 -5 -5 -4 -4 -3 -3 -3 -3 -1 -2 -1 -1
-10 -10 -10 -10 -10 -10 -10 -10 -10 -10 -10 -10 -10 -9 -9 -9 -9 -9 -9 -9 -9 -9 -8 -8 -8 -8 -8 -7 -6 -6 -5 -5 -4 -4 -3 -3 -3 -3 -2 -1 -1 -1 -1 -1
-9 -9 -10 -10 -10 -10 -10 -10 -10 -10 -10 -10 -10 -9 -9 -8 -8 -8 -9 -9 -9 -9 -8 -8 -8 -7 -7 -7 -7 -6 -5 -5 -5 -4 -3 -3 -2 -2 -3 -2 -1 -1 -1 -1
-9 -9 -10 -9 -10 -10 -10 -10 -10 -10 -10 -9 -10 -10 -9 -9 -9 -8 -8 -8 -9 -9 -8 -8 -8 -7 -7 -8 -7 -6 -5 -5 -5 -4 -4 -4 -3 -3 -3 -3 -2 -1 -1 -2
-9 -9 -9 -9 -10 -10 -10 -10 -10 -10 -10 -10 -10 -10 -9 -9 -9 -9 -9 -9 -9 -9 -9 -8 -8 -7 -8 -8 -7 -5 -5 -4 -4 -4 -4 -4 -3 -3 -3 -3 -2 -2 -1 -2
-9 -9 -9 -9 -9 -10 -10 -11 -10 -10 -10 -10 -10 -10 -10 -9 -8 -8 -9 -9 -9 -9 -9 -9 -8 -8 -8 -7 -7 -5 -4 -4 -4 -3 -4 -4 -3 -3 -3 -2 -2 -2 -1 -2
-9 -9 -9 -10 -10 -10 -10 -10 -10 -10 -10 -10 -10 -10 -9 -8 -9 -9 -10 -10 -10 -9 -9 -8 -9 -9 -8 -7 -6 -4 -3 -4 -4 -4 -3 -4 -3 -3 -3 -2 -2 -2 -2 -2
-10 -10 -10 -9 -10 -9 -10 -10 -10 -10 -10 -10 -10 -9 -9 -9 -9 -9 -9 -10 -10 -8 -8 -8 -8 -8 -6 -5 -5 -4 -4 -4 -4 -3 -4 -4 -4 -4 -2 -2 -2 -2 -2 -2
-10 -9 -10 -9 -9 -10 -10 -10 -10 -10 -10 -10 -10 -10 -9 -9 -9 -9 -9 -8 -9 -8 -8 -8 -8 -7 -5 -5 -4 -4 -4 -4 -4 -3 -4 -4 -4 -4 -3 -3 -3 -3 -2 -1
-9 -9 -9 -10 -10 -10 -9 -9 -9 -9 -9 -9 -8 -8 -8 -9 -8 -9 -8 -8 -8 -8 -7 -8 -7 -6 -5 -4 -4 -4 -4 -4 -3 -3 -4 -4 -4 -4 -3 -3 -3 -3 -2 -1
-9 -10 -10 -10 -9 -9 -9 -9 -9 -9 -9 -8 -7 -8 -9 -9 -9 -9 -8 -8 -8 -8 -8 -8 -7 -6 -4 -4 -4 -4 -4 -4 -4 -4 -4 -4 -4 -4 -3 -3 -3 -3 -2 -2
-9 -8 -8 -8 -8 -9 -9 -9 -8 -8 -8 -7 -8 -8 -9 -9 -9 -8 -8 -8 -8 -8 -8 -8 -7 -5 -5 -5 -4 -4 -4 -5 -5 -4 -4 -4 -5 -4 -3 -3 -3 -3 -3 -3
-7 -8 -8 -9 -9 -8 -9 -8 -9 -9 -8 -8 -8 -8 -8 -8 -8 -8 -7 -8 -8 -8 -8 -7 -6 -6 -6 -5 -5 -4 -5 -5 -4 -4 -4 -4 -4 -4 -4 -4 -4 -4 -4 -4
-8 -9 -10 -10 -10 -10 -10 -10 -10 -9 -9 -9 -9 -8 -8 -8 -8 -7 -7 -9 -9 -8 -8 -8 -7 -7 -7 -7 -7 -6 -6 -7 -6 -6 -5 -5 -5 -4 -4 -4 -4 -4 -4 -5
-9 -10 -10 -10 -10 -9 -9 -9 -9 -9 -9 -9 -9 -8 -8 -8 -8 -9 -9 -9 -9 -9 -8 -8 -7 -7 -6 -7 -8 -8 -8 -7 -6 -6 -5 -5 -6 -6 -6 -5 -6 -7 -8 -8

GFSNW_700_temp_099.txt.gz
Temp
-10 -11 -12 -11 -12 -12 -11 -11 -11 -10 -10 -10 -11 -9 -8 -7 -8 -8 -8 -7 -6 -5 -4 -4 -4 -3 -2 -3 -3 -3 -2 -2 -0 1 3 2 2 4 4 4 5 6 6 7
-11 -12 -12 -12 -12 -12 -11 -11 -11 -11 -10 -11 -10 -10 -8 -8 -9 -8 -8 -7 -7 -6 -6 -5 -5 -5 -4 -4 -5 -3 -4 -2 -0 1 2 2 2 3 4 4 4 5 6 6
-13 -12 -12 -12 -12 -11 -11 -12 -11 -11 -11 -10 -10 -9 -9 -8 -9 -9 -8 -8 -8 -7 -7 -6 -6 -5 -5 -5 -5 -5 -5 -4 -1 2 1 -2 1 1 2 2 3 4 5 6
-13 -13 -12 -12 -12 -11 -11 -11 -11 -10 -11 -11 -10 -10 -9 -8 -8 -9 -9 -8 -8 -8 -7 -6 -6 -5 -5 -5 -5 -6 -5 -4 -3 -2 -1 -1 -1 0 1 1 2 3 3 5
-13 -13 -12 -12 -12 -12 -11 -11 -11 -11 -11 -10 -10 -11 -10 -9 -9 -8 -8 -8 -7 -7 -7 -7 -6 -5 -6 -5 -5 -5 -4 -4 -3 -2 -1 -1 -1 0 1 1 2 2 3 3
-13 -13 -13 -12 -12 -12 -11 -11 -11 -11 -11 -11 -10 -10 -10 -9 -9 -9 -9 -8 -9 -8 -8 -8 -8 -7 -7 -7 -7 -6 -6 -5 -4 -3 -2 -1 -0 0 1 1 2 2 3 3
-13 -13 -13 -12 -12 -12 -12 -11 -11 -11 -11 -11 -10 -10 -10 -10 -10 -9 -9 -9 -9 -9 -9 -8 -8 -8 -7 -7 -6 -7 -7 -6 -6 -4 -3 -2 -0 1 1 1 2 2 2 3
-13 -13 -13 -13 -12 -12 -12 -12 -11 -12 -11 -11 -10 -10 -10 -10 -9 -9 -9 -9 -9 -8 -9 -9 -9 -7 -7 -7 -7 -7 -7 -6 -6 -4 -2 -1 -0 0 1 1 2 2 2 2
-13 -13 -13 -13 -12 -12 -12 -12 -12 -12 -12 -11 -11 -10 -10 -10 -9 -9 -9 -9 -9 -9 -9 -8 -8 -6 -5 -5 -5 -6 -6 -7 -6 -5 -3 -2 -0 -1 -1 -1 -1 -1 -1 -1
-13 -13 -13 -12 -12 -12 -12 -12 -12 -12 -12 -11 -11 -11 -10 -10 -10 -10 -9 -9 -9 -9 -9 -8 -7 -7 -6 -5 -4 -5 -6 -6 -6 -5 -4 -3 -2 -1 -2 -2 -1 -2 -3 -2
-13 -12 -12 -12 -12 -12 -12 -11 -12 -12 -11 -11 -12 -12 -11 -10 -10 -10 -9 -9 -8 -8 -9 -9 -7 -7 -6 -5 -5 -5 -5 -5 -5 -5 -5 -3 -3 -3 -3 -3 -3 -2 -4 -3
-12 -12 -12 -12 -12 -12 -12 -12 -11 -11 -12 -12 -11 -10 -10 -10 -11 -10 -10 -9 -9 -8 -8 -8 -8 -7 -6 -6 -5 -4 -5 -4 -4 -4 -3 -4 -4 -4 -4 -4 -3 -2 -3 -3
-12 -12 -12 -12 -12 -12 -12 -11 -11 -12 -12 -12 -11 -10 -10 -10 -10 -10 -11 -9 -9 -9 -8 -8 -8 -7 -7 -6 -5 -5 -5 -4 -4 -3 -3 -3 -4 -5 -5 -4 -5 -4 -4 -3
-12 -12 -12 -11 -11 -12 -12 -11 -11 -12 -12 -12 -10 -10 -10 -10 -10 -10 -10 -9 -9 -9 -9 -8 -8 -8 -7 -6 -6 -6 -5 -5 -4 -4 -4 -4 -4 -5 -5 -5 -5 -5 -4 -2
-11 -11 -11 -11 -11 -11 -11 -11 -11 -11 -11 -11 -10 -10 -10 -10 -10 -10 -9 -9 -9 -9 -9 -9 -8 -8 -8 -7 -7 -6 -5 -5 -4 -4 -4 -5 -4 -4 -5 -5 -4 -4 -3 -3
-10 -11 -11 -11 -11 -10 -10 -10 -11 -10 -10 -11 -11 -10 -9 -9 -9 -10 -10 -9 -9 -9 -9 -9 -8 -8 -8 -8 -6 -5 -5 -5 -5 -5 -5 -5 -5 -5 -5 -5 -5 -3 -2 -2
-10 -10 -10 -11 -11 -10 -10 -10 -9 -9 -10 -10 -10 -10 -9 -9 -9 -9 -9 -9 -9 -9 -9 -9 -8 -8 -8 -7 -8 -7 -6 -6 -5 -5 -5 -5 -5 -5 -5 -5 -3 -3 -2 -2
-9 -10 -10 -10 -10 -10 -10 -10 -9 -10 -10 -10 -10 -9 -9 -8 -8 -9 -9 -8 -8 -9 -9 -9 -8 -8 -8 -8 -7 -7 -6 -6 -6 -5 -5 -5 -5 -5 -4 -4 -3 -3 -2 -2
-9 -9 -10 -10 -10 -10 -10 -10 -10 -10 -10 -10 -10 -9 -9 -9 -8 -9 -8 -9 -9 -9 -9 -8 -9 -9 -8 -7 -7 -7 -7 -6 -6 -6 -6 -6 -5 -5 -5 -4 -4 -3 -3 -3
-9 -9 -10 -10 -10 -10 -10 -10 -10 -10 -10 -9 -9 -9 -9 -9 -9 -8 -9 -9 -9 -9 -8 -9 -9 -9 -8 -7 -7 -7 -7 -7 -7 -5 -5 -6 -6 -6 -5 -4 -4 -4 -3 -3
-9 -10 -10 -10 -10 -10 -10 -10 -10 -10 -10 -9 -9 -9 -9 -8 -9 -8 -9 -9 -9 -9 -8 -8 -7 -7 -7 -7 -7 -7 -7 -7 -5 -5 -5 -5 -5 -5 -5 -4 -4 -4 -4 -4
-9 -9 -9 -10 -10 -10 -10 -10 -10 -10 -9 -8 -8 -9 -10 -9 -9 -9 -9 -9 -8 -8 -7 -8 -7 -7 -6 -6 -6 -6 -6 -7 -6 -5 -5 -5 -4 -4 -4 -4 -4 -4 -4 -4
-9 -9 -10 -10 -10 -9 -9 -10 -10 -9 -9 -8 -8 -8 -9 -9 -9 -10 -9 -9 -8 -7 -7 -7 -7 -6 -6 -7 -7 -6 -7 -7 -7 -6 -5 -5 -4 -4 -4 -4 -4 -4 -4 -4
-10 -9 -10 -9 -9 -9 -9 -9 -8 -8 -8 -8 -8 -10 -10 -10 -10 -9 -9 -8 -8 -8 -8 -7 -7 -7 -7 -8 -8 -8 -7 -7 -6 -5 -5 -5 -5 -4 -4 -4 -4 -5 -4 -4
-9 -8 -8 -8 -8 -8 -8 -8 -8 -8 -8 -8 -10 -10 -9 -10 -10 -9 -8 -8 -8 -8 -7 -7 -7 -7 -7 -8 -8 -8 -7 -7 -6 -6 -5 -5 -5 -5 -5 -5 -5 -5 -5 -5
-7 -7 -8 -7 -7 -7 -8 -8 -8 -8 -8 -9 -9 -9 -9 -9 -9 -9 -8 -8 -8 -9 -8 -7 -7 -7 -8 -8 -8 -8 -7 -7 -7 -7 -6 -6 -6 -6 -5 -5 -5 -6 -6 -5
-7 -7 -8 -7 -8 -8 -8 -8 -8 -9 -9 -10 -9 -8 -9 -9 -9 -9 -9 -10 -9 -8 -8 -8 -8 -7 -8 -7 -7 -8 -8 -8 -8 -9 -8 -8 -7 -7 -7 -7 -7 -7 -6 -6